Location: Bonneuil
(46.1010°N, 2.9693°E)
Time: 00:22:07
(UTC+00:00)

IRIDIUM 103 - Pass Details

Date: 09 April 2020
Orbit: 776 x 779 km, 86.4° (Epoch: 02 June)

Event Time Altitude Azimuth Distance (km) Brightness Sun altitude
Rises 18:56:44 0° 357° (N) 3,276 7.9 -5.7°
Reaches altitude 10° 18:59:06 10° 358° (N) 2,343 7.1 -6.1°
Maximum altitude 19:04:21 82° 87° (E) 793 4.3 -6.9°
Drops below altitude 10° 19:09:34 10° 175° (S) 2,324 6.6 -7.8°
Sets 19:11:54 0° 176° (S) 3,246 7.3 -8.1°
